EW5804 Weather Reports


Display with metric or nautical units.
time (UTC)temp
F
wind
direction
speed
MPH
gust
MPH
rain 1hr
in
rain 24hr
in
rain mn
in
humidity
%
barometer
mb
20260502170358 55 329 1.0 3.0 0.00 0.02 0.02 78 1013.9
20260502164334 54 28 2.0 6.0 0.00 0.02 0.02 77 1013.7
20260502163828 55 44 2.0 6.0 0.00 0.02 0.02 76 1013.7
20260502163543 55 328 2.0 8.0 0.00 0.02 0.02 76 1013.5
20260502162816 55 35 2.0 8.0 0.00 0.02 0.02 77 1013.7
20260502162310 55 345 3.0 9.0 0.00 0.02 0.02 76 1013.6
20260502161803 55 350 3.0 9.0 0.00 0.02 0.02 77 1013.7
20260502161258 55 45 3.0 5.0 0.00 0.02 0.02 78 1013.6
20260502161021 55 50 3.0 8.0 0.01 0.02 0.02 79 1013.7
20260502160246 55 5 3.0 8.0 0.01 0.02 0.02 78 1013.7
20260502152157 53 10 2.0 4.0 0.02 0.02 0.02 81 1013.8
20260502151652 53 20 2.0 4.0 0.02 0.02 0.02 82 1014.0
20260502151147 53 24 2.0 4.0 0.01 0.01 0.01 81 1014.2
20260502150640 53 336 1.0 6.0 0.01 0.01 0.01 80 1014.3
20260502150135 54 319 1.0 6.0 0.01 0.01 0.01 79 1014.2
20260502130416 56 51 4.0 9.0 0.00 0.01 0.00 76 1012.6
20260502123339 53 33 2.0 5.0 0.00 0.01 0.00 85 1012.6
20260502122833 53 51 2.0 5.0 0.00 0.01 0.00 86 1012.7
20260502122327 53 24 1.0 5.0 0.00 0.01 0.00 88 1012.7
20260502121822 53 322 1.0 4.0 0.00 0.01 0.00 88 1012.8
20260502121539 52 322 1.0 3.0 0.00 0.01 0.00 88 1012.8
20260502120810 52 257 1.0 2.0 0.00 0.01 0.00 88 1012.9
20260502120521 52 257 0.0 2.0 0.00 0.01 0.00 89 1013.0
20260502120402 52 258 0.0 2.0 0.00 0.01 0.00 88 1013.1
20260502115305 52 257 0.0 2.0 0.00 0.01 0.00 88 1012.9
20260502114802 52 258 0.0 2.0 0.00 0.01 0.00 89 1013.0
20260502114301 52 257 0.0 1.0 0.00 0.01 0.00 89 1012.9
20260502113801 52 257 0.0 0.0 0.00 0.01 0.00 89 1013.0
20260502113302 51 257 0.0 0.0 0.00 0.01 0.00 88 1013.0
20260502112801 51 258 0.0 1.0 0.00 0.01 0.00 88 1013.1
20260502112524 51 258 0.0 1.0 0.00 0.01 0.00 88 1013.2
20260502111801 51 257 0.0 1.0 0.00 0.01 0.00 88 1013.3
20260502111302 51 257 0.0 1.0 0.00 0.01 0.00 88 1013.2
20260502110801 51 259 0.0 1.0 0.00 0.01 0.00 88 1013.0
20260502110301 51 259 0.0 1.0 0.00 0.01 0.00 88 1012.9
20260502110025 51 257 0.0 1.0 0.00 0.01 0.00 88 1012.9
20260502105258 51 257 0.0 1.0 0.00 0.01 0.00 88 1012.9
20260502104759 51 258 0.0 1.0 0.00 0.01 0.00 88 1012.9
20260502104257 51 257 0.0 1.0 0.00 0.01 0.00 88 1012.9
20260502103757 51 257 0.0 1.0 0.00 0.01 0.00 88 1012.8
20260502103257 51 258 0.0 0.0 0.00 0.01 0.00 88 1012.7
20260502102758 51 258 0.0 1.0 0.00 0.01 0.00 88 1012.6
20260502102258 51 257 0.0 1.0 0.00 0.01 0.00 88 1012.6
20260502101758 51 258 0.0 1.0 0.00 0.01 0.00 88 1012.7
20260502101258 51 257 0.0 0.0 0.00 0.01 0.00 88 1012.7
20260502100758 51 258 0.0 2.0 0.00 0.01 0.00 88 1012.6
20260502100258 51 257 0.0 2.0 0.00 0.01 0.00 88 1012.4
20260502091453 50 292 1.0 3.0 0.00 0.01 0.00 88 1012.2
20260502090944 50 214 0.0 0.0 0.00 0.01 0.00 88 1012.3
20260502090222 50 214 0.0 0.0 0.00 0.01 0.00 88 1012.3
20260502080110 50 212 0.0 0.0 0.00 0.01 0.00 87 1012.1
20260502071516 51 213 0.0 0.0 0.00 0.01 0.00 87 1011.9
20260502071011 51 213 0.0 0.0 0.00 0.01 0.00 87 1011.9
20260502070505 51 213 0.0 0.0 0.00 0.01 0.00 87 1011.9
20260502065958 51 212 0.0 0.0 0.00 0.01 0.00 86 1011.8
20260502065451 51 212 0.0 0.0 0.00 0.01 0.00 86 1011.9
20260502064947 51 213 0.0 0.0 0.00 0.01 0.00 86 1011.9
20260502064441 51 212 0.0 0.0 0.00 0.01 0.00 86 1011.9
20260502063934 51 213 0.0 0.0 0.00 0.01 0.00 86 1011.9
20260502063429 51 213 0.0 0.0 0.00 0.01 0.00 86 1012.0
20260502063408 51 212 0.0 0.0 0.00 0.01 0.00 86 1012.2
20260502062430 51 212 0.0 0.0 0.00 0.01 0.00 85 1012.3
20260502061404 51 213 0.0 0.0 0.00 0.01 0.00 85 1012.4
20260502060858 51 212 0.0 0.0 0.00 0.01 0.00 85 1012.6
20260502060616 51 212 0.0 0.0 0.00 0.01 0.00 85 1012.5
20260502055847 51 212 0.0 0.0 0.00 0.01 0.00 85 1012.6
20260502055559 51 213 0.0 0.0 0.00 0.01 0.00 85 1012.8
20260502054835 51 213 0.0 0.0 0.00 0.01 0.00 84 1012.8
20260502054329 52 212 0.0 0.0 0.00 0.01 0.00 84 1012.8
20260502054047 52 212 0.0 0.0 0.00 0.01 0.00 84 1012.8
20260502053537 52 211 0.0 0.0 0.00 0.01 0.00 84 1012.9
20260502052810 52 212 0.0 0.0 0.00 0.01 0.00 83 1012.9
20260502052306 52 212 0.0 0.0 0.00 0.01 0.00 83 1013.0
20260502051758 52 212 0.0 0.0 0.00 0.01 0.00 83 1013.0
20260502051252 52 212 0.0 0.0 0.00 0.01 0.00 83 1013.1
20260502050745 52 212 0.0 0.0 0.00 0.01 0.00 83 1013.0
20260502050507 52 212 0.0 0.0 0.00 0.01 0.00 83 1013.2
20260502045733 53 212 0.0 0.0 0.00 0.01 0.00 82 1013.2
20260502045233 53 213 0.0 0.0 0.00 0.01 0.00 82 1013.2
20260502044733 53 212 0.0 0.0 0.00 0.01 0.00 82 1013.2
20260502044232 53 213 0.0 0.0 0.00 0.01 0.00 82 1013.2
20260502043955 53 213 0.0 0.0 0.00 0.01 0.00 82 1013.2
20260502043235 53 213 0.0 0.0 0.00 0.01 0.00 82 1013.4
20260502043001 53 213 0.0 0.0 0.00 0.01 0.00 82 1013.4
20260502042233 53 212 0.0 2.0 0.00 0.01 0.00 81 1013.3
20260502041958 53 212 0.0 2.0 0.00 0.01 0.00 81 1013.3
20260502041233 53 213 1.0 3.0 0.00 0.01 0.00 81 1013.4
20260502040734 53 211 1.0 4.0 0.00 0.01 0.00 81 1013.4
20260502040233 53 213 1.0 4.0 0.00 0.01 0.00 81 1013.6
20260502035731 54 226 1.0 3.0 0.00 0.01 0.01 80 1013.6
20260502035232 54 227 0.0 3.0 0.00 0.01 0.01 80 1013.6
20260502034723 54 219 0.0 2.0 0.00 0.01 0.01 80 1013.6
20260502034217 54 219 1.0 4.0 0.00 0.01 0.01 80 1013.6
20260502033713 54 219 1.0 4.0 0.00 0.01 0.01 80 1013.6
20260502033206 54 206 1.0 3.0 0.00 0.01 0.01 80 1013.5
20260502032702 54 206 1.0 3.0 0.00 0.01 0.01 80 1013.4
20260502032155 54 210 1.0 3.0 0.00 0.01 0.01 79 1013.4
20260502031648 54 210 1.0 3.0 0.00 0.01 0.01 79 1013.4
20260502031155 54 201 1.0 4.0 0.00 0.01 0.01 79 1013.4
20260502030637 54 202 1.0 4.0 0.00 0.01 0.01 79 1013.2
20260502030130 54 146 0.0 1.0 0.00 0.01 0.01 79 1013.2
20260502025624 55 146 0.0 2.0 0.00 0.01 0.01 78 1013.2
20260502025119 55 146 1.0 3.0 0.00 0.01 0.01 78 1013.2
20260502024613 55 145 1.0 3.0 0.00 0.01 0.01 78 1013.3
20260502024332 55 113 1.0 2.0 0.00 0.01 0.01 78 1013.5
20260502023601 55 110 1.0 2.0 0.00 0.01 0.01 77 1013.7
20260502023055 55 110 1.0 4.0 0.00 0.01 0.01 77 1013.8
20260502022550 55 109 1.0 4.0 0.00 0.01 0.01 77 1013.9
20260502022306 55 135 0.0 3.0 0.00 0.01 0.01 76 1013.9
20260502021536 56 177 0.0 2.0 0.00 0.01 0.01 76 1014.0
20260502021031 56 177 0.0 2.0 0.00 0.01 0.01 76 1014.0
20260502020525 56 177 0.0 2.0 0.00 0.01 0.01 75 1014.0
20260502020019 56 177 1.0 3.0 0.00 0.01 0.01 75 1013.8
20260502015732 56 186 1.0 4.0 0.00 0.01 0.01 75 1013.7
20260502015225 56 170 1.0 5.0 0.00 0.01 0.01 75 1013.5
20260502014500 57 271 2.0 7.0 0.00 0.01 0.01 75 1013.4
20260502013954 57 168 2.0 10.0 0.00 0.01 0.01 74 1013.4
20260502013449 57 290 2.0 10.0 0.00 0.01 0.01 74 1013.3
20260502013208 57 201 2.0 7.0 0.00 0.01 0.01 74 1013.3
20260502012437 57 247 2.0 7.0 0.00 0.01 0.01 74 1013.2
20260502011930 57 151 2.0 6.0 0.00 0.01 0.01 74 1013.2
20260502011424 57 138 2.0 6.0 0.00 0.01 0.01 74 1013.2
20260502010919 57 334 1.0 5.0 0.00 0.01 0.01 74 1013.2
20260502010632 57 165 1.0 5.0 0.00 0.01 0.01 73 1013.0
20260502005907 57 200 1.0 3.0 0.00 0.01 0.01 73 1013.1
20260502005401 57 201 1.0 3.0 0.00 0.01 0.01 73 1012.9
20260502004855 57 201 1.0 4.0 0.00 0.01 0.01 72 1012.8
20260502004349 58 281 1.0 4.0 0.00 0.01 0.01 72 1012.9
20260502003845 58 166 1.0 2.0 0.00 0.01 0.01 71 1012.8
20260502003345 58 166 1.0 2.0 0.00 0.01 0.01 71 1012.7
20260502002845 58 165 0.0 2.0 0.00 0.01 0.01 70 1012.7
20260502002342 59 165 1.0 2.0 0.00 0.01 0.01 70 1012.7
20260502002107 59 165 1.0 3.0 0.00 0.01 0.01 69 1012.7
20260502001343 59 125 1.0 5.0 0.00 0.01 0.01 69 1012.6
20260502000841 60 194 1.0 5.0 0.00 0.01 0.01 69 1012.5
20260502000342 60 121 1.0 2.0 0.00 0.01 0.01 69 1012.5
20260501235841 60 331 0.0 3.0 0.00 0.01 0.01 68 1012.5
20260501235341 61 247 0.0 3.0 0.00 0.01 0.01 67 1012.4
20260501234842 61 296 0.0 3.0 0.00 0.01 0.01 67 1012.5
20260501234340 61 296 1.0 3.0 0.00 0.01 0.01 66 1012.5
20260501233839 62 288 1.0 3.0 0.00 0.01 0.01 65 1012.4
20260501233340 62 336 1.0 4.0 0.00 0.01 0.01 64 1012.4
20260501233320 62 196 1.0 4.0 0.00 0.01 0.01 63 1012.6
20260501232339 63 192 1.0 5.0 0.00 0.01 0.01 62 1012.5
20260501231837 63 159 1.0 5.0 0.00 0.01 0.01 60 1012.4
20260501231552 64 180 2.0 5.0 0.00 0.01 0.01 60 1012.5
20260501230836 64 189 2.0 5.0 0.00 0.01 0.01 59 1012.4
20260501230330 64 176 2.0 9.0 0.00 0.01 0.01 57 1012.4
20260501225825 64 304 3.0 9.0 0.00 0.01 0.01 56 1012.3
20260501225318 65 179 3.0 8.0 0.00 0.01 0.01 56 1012.3
20260501224812 65 115 2.0 8.0 0.00 0.01 0.01 56 1012.3
20260501224306 65 180 2.0 7.0 0.00 0.01 0.01 56 1012.3
20260501223801 65 184 2.0 5.0 0.00 0.01 0.01 56 1012.3
20260501223254 65 180 2.0 6.0 0.00 0.01 0.01 55 1012.3
20260501222748 66 161 2.0 6.0 0.00 0.01 0.01 54 1012.3
20260501222242 66 182 3.0 9.0 0.00 0.01 0.01 53 1012.3
20260501221737 67 149 2.0 9.0 0.00 0.01 0.01 52 1012.5
20260501221229 67 312 2.0 8.0 0.00 0.01 0.01 50 1012.4
20260501220723 68 36 4.0 8.0 0.00 0.01 0.01 48 1012.4
20260501220437 68 241 3.0 8.0 0.00 0.01 0.01 47 1012.2
20260501215717 68 94 2.0 7.0 0.00 0.01 0.01 48 1012.3
20260501215217 69 49 2.0 9.0 0.00 0.01 0.01 47 1012.3
20260501214717 69 130 3.0 9.0 0.00 0.01 0.01 46 1012.3
20260501214217 69 165 4.0 9.0 0.00 0.01 0.01 46 1012.2
20260501213717 69 220 3.0 8.0 0.00 0.01 0.01 46 1012.4
20260501213216 69 228 3.0 9.0 0.00 0.01 0.01 46 1012.2
20260501212717 69 232 3.0 9.0 0.00 0.01 0.01 44 1012.3
20260501212216 69 151 2.0 7.0 0.00 0.01 0.01 44 1012.4
20260501211716 69 169 2.0 6.0 0.00 0.01 0.01 45 1012.4
20260501211217 69 172 3.0 6.0 0.00 0.01 0.01 45 1012.5
20260501210937 69 187 2.0 10.0 0.00 0.01 0.01 44 1012.3
20260501210216 69 277 3.0 10.0 0.00 0.01 0.01 42 1012.4
20260501205717 69 215 4.0 11.0 0.00 0.01 0.01 41 1012.4
20260501205216 69 228 5.0 11.0 0.00 0.01 0.01 41 1012.4
20260501204717 69 256 4.0 9.0 0.00 0.01 0.01 37 1012.4
20260501204443 69 17 3.0 8.0 0.00 0.01 0.01 41 1012.4
20260501203717 69 93 2.0 7.0 0.00 0.01 0.01 41 1012.4
20260501203216 69 195 3.0 8.0 0.00 0.01 0.01 40 1012.6
20260501202941 69 238 3.0 8.0 0.00 0.01 0.01 40 1012.6
20260501202217 69 224 4.0 10.0 0.00 0.01 0.01 42 1012.8
20260501201718 69 293 3.0 10.0 0.00 0.01 0.01 46 1012.8
20260501201229 68 172 2.0 7.0 0.00 0.01 0.01 42 1012.9
20260501200717 68 140 3.0 9.0 0.00 0.01 0.01 44 1013.1
20260501200216 68 345 3.0 9.0 0.00 0.01 0.01 43 1013.1
20260501195716 68 97 3.0 9.0 0.00 0.01 0.01 42 1013.2
20260501194921 68 261 4.0 12.0 0.00 0.01 0.01 43 1013.4
20260501194807 68 292 3.0 8.0 0.00 0.01 0.01 42 1013.3
20260501193708 68 219 3.0 11.0 0.00 0.01 0.01 42 1013.4
20260501193422 68 262 3.0 8.0 0.00 0.01 0.01 44 1013.4
20260501192657 67 262 2.0 8.0 0.00 0.01 0.01 49 1013.5
20260501192150 66 163 2.0 8.0 0.00 0.01 0.01 44 1013.5
20260501191644 66 175 3.0 9.0 0.00 0.01 0.01 44 1013.7
20260501191356 66 222 3.0 9.0 0.00 0.01 0.01 42 1013.9
20260501190632 65 197 4.0 10.0 0.00 0.01 0.01 52 1014.1
20260501190127 65 68 4.0 10.0 0.00 0.01 0.01 46 1014.0
20260501185620 66 271 3.0 9.0 0.00 0.01 0.01 53 1014.1
20260501185115 65 74 4.0 11.0 0.00 0.01 0.01 50 1014.3
20260501184608 65 91 3.0 11.0 0.00 0.01 0.01 48 1014.5
20260501184103 65 57 3.0 7.0 0.00 0.01 0.01 51 1014.5
20260501183557 65 355 3.0 8.0 0.00 0.01 0.01 50 1014.4
20260501183050 65 170 3.0 8.0 0.00 0.01 0.01 51 1014.6
20260501182544 65 20 2.0 8.0 0.00 0.01 0.01 49 1014.8
20260501182047 65 256 3.0 7.0 0.00 0.01 0.01 49 1014.8
20260501181532 65 193 4.0 10.0 0.00 0.01 0.01 49 1014.8
20260501181248 65 99 4.0 10.0 0.00 0.01 0.01 49 1014.9
20260501180521 65 45 3.0 6.0 0.00 0.01 0.01 48 1014.9
20260501180502 64 48 2.0 7.0 0.00 0.01 0.01 52 1014.8